This is the latest recevied weather packets stored in our database for station/object KI5NXU. If no packets are shown the sender has not sent any weather packets the latest 1 day(s).
| Time | Temp. | Humidity | Pressure | Rain* | Wind** | Luminosity | Snow |
|---|---|---|---|---|---|---|---|
| 1777990706 | 24.44° C | 75% | 1003.7 hPa | 0 mm | 4.47 m/s, 224° | 343 W/m² | - |
| 1777990404 | 23.89° C | 76% | 1003.5 hPa | 0 mm | 4.47 m/s, 215° | 304 W/m² | - |
| 1777990100 | 23.33° C | 77% | 1003.6 hPa | 0 mm | 4.47 m/s, 212° | 265 W/m² | - |
| 1777989796 | 23.33° C | 78% | 1003.5 hPa | 0 mm | 3.13 m/s, 219° | 202 W/m² | - |
| 1777989494 | 23.33° C | 78% | 1003.4 hPa | 0 mm | 5.81 m/s, 212° | 215 W/m² | - |
| 1777989190 | 23.33° C | 78% | 1003.6 hPa | 0 mm | 5.36 m/s, 220° | 211 W/m² | - |
| 1777988886 | 23.33° C | 78% | 1003.5 hPa | 0 mm | 6.26 m/s, 212° | 175 W/m² | - |
| 1777988583 | 23.33° C | 78% | 1003.8 hPa | 0 mm | 4.47 m/s, 218° | 159 W/m² | - |
| 1777988280 | 22.78° C | 78% | 1003.5 hPa | 0 mm | 4.92 m/s, 228° | 185 W/m² | - |
| 1777987977 | 22.78° C | 79% | 1003.7 hPa | 0 mm | 4.92 m/s, 212° | 132 W/m² | - |
| 1777987672 | 22.78° C | 78% | 1003.4 hPa | 0 mm | 6.26 m/s, 219° | 115 W/m² | - |
| 1777987369 | 22.78° C | 79% | 1003.5 hPa | 0 mm | 4.92 m/s, 213° | 120 W/m² | - |
| 1777987067 | 22.78° C | 79% | 1003.5 hPa | 0 mm | 4.92 m/s, 214° | 123 W/m² | - |
| 1777986764 | 22.78° C | 79% | 1003.4 hPa | 0 mm | 6.26 m/s, 220° | 117 W/m² | - |
| 1777986462 | 22.78° C | 79% | 1003.3 hPa | 0 mm | 5.81 m/s, 216° | 122 W/m² | - |
| 1777986160 | 22.22° C | 80% | 1003.1 hPa | 0 mm | 5.36 m/s, 231° | 80 W/m² | - |
| 1777985857 | 22.22° C | 80% | 1003.2 hPa | 0 mm | 4.92 m/s, 213° | 69 W/m² | - |
| 1777985554 | 22.22° C | 80% | 1003.1 hPa | 0 mm | 4.47 m/s, 219° | 82 W/m² | - |
| 1777985251 | 22.22° C | 81% | 1003.1 hPa | 0 mm | 4.47 m/s, 209° | 75 W/m² | - |
| 1777984947 | 22.22° C | 80% | 1003 hPa | 0 mm | 4.47 m/s, 219° | 55 W/m² | - |
| 1777984643 | 22.22° C | 80% | 1003 hPa | 0 mm | 4.02 m/s, 218° | 47 W/m² | - |
| 1777984340 | 22.22° C | 81% | 1003 hPa | 0 mm | 4.02 m/s, 215° | 39 W/m² | - |
| 1777984037 | 21.67° C | 81% | 1003 hPa | 0 mm | 6.26 m/s, 223° | 40 W/m² | - |
| 1777983734 | 21.67° C | 81% | 1002.8 hPa | 0 mm | 5.81 m/s, 228° | 34 W/m² | - |
| 1777983430 | 21.67° C | 81% | 1003 hPa | 0 mm | 4.02 m/s, 223° | 25 W/m² | - |
* Rain latest hour (hover to see other rain measurements)
** Current wind speed in m/s (hover to see current wind gust speed)